sat.trackr.live / text

‹ back to catalog

TOMORROW-S6

NORAD 63225 · 2025-052R

PAYLOAD ACTIVE UNKNOWN

§ Identity

Operator
Country
US
Launch date
2025-03-15
Launch site
AFWTR
Launch vehicle
Mass (kg)
RCS (m²)

External: N2YO · Heavens-Above · Gunter

§ Orbital elements

Epoch: 2026-09-22T16:23:50.211456Z

Period
94.54 min
Inclination
97.3865°
Eccentricity
0.0006047
Mean motion
15.23113838 rev/d
Perigee alt
492.3 km
Apogee alt
500.6 km
Semi-major
6,874.6 km
B*
1.2755e-4
RAAN
157.0593°
Arg perigee
137.1033°
Mean anomaly
223.0676°
Rev number
8,468

§ Raw data

TOMORROW-S61 63225U 25052R   26265.68322004  .00002940  00000+0  12755-3 0  99952 63225  97.3865 157.0593 0006047 137.1033 223.0676 15.23113838 84680

JSON: /api/v1/satellites/63225 · /tle

For live sub-satellite position, see the globe view (requires WebGL).

§ Visibility from observer

Set your observer location to see the next 7 days of passes ≥ 10°. The values pass through the URL so the page stays shareable.

No JS? Fill the form by hand. The geolocation button needs JavaScript.